Location: �quirre
(50.4736°N, 2.2351°E)
Time: 20:45:13
(UTC+00:00)

Cosmos 2297 Rocket - Pass Details

Date: 07 August 2020
Orbit: 838 x 845 km, 71.0° (Epoch: 22 September)

Event Time Altitude Azimuth Distance (km) Brightness Sun altitude
Exits shadow 02:27:55 23° 232° (SW) 1,723 3.2 -15.4°
Maximum altitude 02:31:25 58° 305° (NW) 976 2.5 -15.1°
Drops below altitude 10° 02:37:00 10° 24° (NNE) 2,469 5.9 -14.5°
Sets 02:39:30 0° 29° (NNE) 3,408 7.1 -14.3°
